,,Stat6,,Stat2,,Stat8,,Stat9,,Stat10,,Wind1,,Wind1,
time,status,PA1M_AVG,status,PR1M_SUM,status,RH1M_AVG,status,SR1M_AVG,status,TA1M_AVG,status,W1dAve1m,status,W1sAve1m,
2008-07-21, 00:00:00,VALID,917.663,VALID,0,VALID,100,VALID,-0.101885,VALID,19.3454,VALID,100,VALID,0,
2008-07-21, 00:01:00,VALID,917.622,VALID,0,VALID,100,VALID,-0.118866,VALID,19.3386,VALID,87,VALID,0,
2008-07-21, 00:02:00,VALID,917.607,VALID,0,VALID,100,VALID,-0.0509425,VALID,19.3384,VALID,68,VALID,0,
2008-07-21, 00:03:00,VALID,917.562,VALID,0,VALID,100,VALID,-0.0849042,VALID,19.3376,VALID,40,VALID,0,
2008-07-21, 00:04:00,VALID,917.551,VALID,0,VALID,100,VALID,-0.0849042,VALID,19.3576,VALID,23,VALID,0,
2008-07-21, 00:05:00,VALID,917.532,VALID,0,VALID,100,VALID,-0.118866,VALID,19.3678,VALID,22,VALID,0,
2008-07-21, 00:06:00,VALID,917.535,VALID,0,VALID,100,VALID,-0.0849042,VALID,19.3643,VALID,22,VALID,0,
2008-07-21, 00:07:00,VALID,917.536,VALID,0,VALID,100,VALID,-0.135847,VALID,19.3616,VALID,11,VALID,0,
2008-07-21, 00:08:00,VALID,917.538,VALID,0,VALID,100,VALID,-0.152827,VALID,19.3351,VALID,3,VALID,0,
2008-07-21, 00:09:00,VALID,917.536,VALID,0,VALID,100,VALID,-0.186789,VALID,19.3359,VALID,351,VALID,0,
2008-07-21, 00:10:00,VALID,917.546,VALID,0,VALID,100,VALID,-0.118866,VALID,19.3351,VALID,350,VALID,0,
2008-07-21, 00:11:00,VALID,917.538,VALID,0,VALID,100,VALID,-0.135847,VALID,19.3381,VALID,350,VALID,0,
2008-07-21, 00:12:00,VALID,917.537,VALID,0,VALID,100,VALID,-0.186789,VALID,19.3516,VALID,350,VALID,0,
2008-07-21, 00:13:00,VALID,917.544,VALID,0,VALID,100,VALID,-0.135847,VALID,19.3711,VALID,350,VALID,0,
2008-07-21, 00:14:00,VALID,917.548,VALID,0,VALID,100,VALID,-0.118866,VALID,19.3773,VALID,350,VALID,0,
2008-07-21, 00:15:00,VALID,917.549,VALID,0,VALID,100,VALID,-0.118866,VALID,19.3743,VALID,350,VALID,0,
2008-07-21, 00:16:00,VALID,917.572,VALID,0,VALID,100,VALID,-0.118866,VALID,19.3743,VALID,4,VALID,0,
2008-07-21, 00:17:00,VALID,917.598,VALID,0,VALID,100,VALID,-0.101885,VALID,19.3711,VALID,18,VALID,0,
2008-07-21, 00:18:00,VALID,917.62,VALID,0,VALID,100,VALID,-0.101885,VALID,19.3576,VALID,4,VALID,0,
2008-07-21, 00:19:00,VALID,917.652,VALID,0,VALID,100,VALID,-0.118866,VALID,19.3574,VALID,17,VALID,0,
2008-07-21, 00:20:00,VALID,917.691,VALID,0,VALID,100,VALID,-0.0679233,VALID,19.3576,VALID,21,VALID,0,
2008-07-21, 00:21:00,VALID,917.723,VALID,0,VALID,100,VALID,-0.135847,VALID,19.3484,VALID,34,VALID,0,
2008-07-21, 00:22:00,VALID,917.737,VALID,0,VALID,100,VALID,-0.118866,VALID,19.3314,VALID,35,VALID,0,
2008-07-21, 00:23:00,VALID,917.739,VALID,0,VALID,100,VALID,-0.152827,VALID,19.3484,VALID,40,VALID,0,
2008-07-21, 00:24:00,VALID,917.749,VALID,0,VALID,100,VALID,-0.135847,VALID,19.3449,VALID,45,VALID,0,
2008-07-21, 00:25:00,VALID,917.752,VALID,0,VALID,100,VALID,-0.101885,VALID,19.3484,VALID,58,VALID,0,
2008-07-21, 00:26:00,VALID,917.751,VALID,0,VALID,100,VALID,-0.0339617,VALID,19.3307,VALID,58,VALID,0,
2008-07-21, 00:27:00,VALID,917.735,VALID,0,VALID,100,VALID,-0.0169808,VALID,19.3105,VALID,63,VALID,0,
2008-07-21, 00:28:00,VALID,917.738,VALID,0,VALID,100,VALID,-0.0169808,VALID,19.3147,VALID,62,VALID,0,
2008-07-21, 00:29:00,VALID,917.732,VALID,0,VALID,100,VALID,-0.0339617,VALID,19.3234,VALID,61,VALID,0,
2008-07-21, 00:30:00,VALID,917.726,VALID,0,VALID,100,VALID,0.0169808,VALID,19.3334,VALID,59,VALID,0,
2008-07-21, 00:31:00,VALID,917.729,VALID,0,VALID,100,VALID,0.0169808,VALID,19.3272,VALID,64,VALID,0,
2008-07-21, 00:32:00,VALID,917.727,VALID,0,VALID,100,VALID,0.0169808,VALID,19.3334,VALID,76,VALID,0,
2008-07-21, 00:33:00,VALID,917.721,VALID,0,VALID,100,VALID,0,VALID,19.3529,VALID,76,VALID,0,
2008-07-21, 00:34:00,VALID,917.719,VALID,0,VALID,100,VALID,0,VALID,19.3724,VALID,76,VALID,0,
2008-07-21, 00:35:00,VALID,917.722,VALID,0,VALID,100,VALID,0,VALID,19.3788,VALID,51,VALID,0,
2008-07-21, 00:36:00,VALID,917.716,VALID,0,VALID,100,VALID,0.0169808,VALID,19.3916,VALID,75,VALID,0,
2008-07-21, 00:37:00,VALID,917.725,VALID,0,VALID,100,VALID,0.0169808,VALID,19.3751,VALID,88,VALID,0,
2008-07-21, 00:38:00,VALID,917.729,VALID,0,VALID,100,VALID,-0.0169808,VALID,19.3888,VALID,82,VALID,0,
2008-07-21, 00:39:00,VALID,917.719,VALID,0,VALID,100,VALID,0,VALID,19.4053,VALID,83,VALID,0,
2008-07-21, 00:40:00,VALID,917.706,VALID,0,VALID,100,VALID,-0.0169808,VALID,19.4213,VALID,83,VALID,0,
2008-07-21, 00:41:00,VALID,917.686,VALID,0,VALID,100,VALID,-0.101885,VALID,19.439,VALID,106,VALID,0,
2008-07-21, 00:42:00,VALID,917.701,VALID,0,VALID,100,VALID,-0.135847,VALID,19.4654,VALID,104,VALID,0,
2008-07-21, 00:43:00,VALID,917.713,VALID,0,VALID,100,VALID,-0.118866,VALID,19.5069,VALID,104,VALID,0,
2008-07-21, 00:44:00,VALID,917.725,VALID,0,VALID,100,VALID,-0.101885,VALID,19.5398,VALID,104,VALID,0,
2008-07-21, 00:45:00,VALID,917.731,VALID,0,VALID,100,VALID,-0.118866,VALID,19.5498,VALID,104,VALID,0,
2008-07-21, 00:46:00,VALID,917.743,VALID,0,VALID,100,VALID,-0.101885,VALID,19.5625,VALID,104,VALID,0,
2008-07-21, 00:47:00,VALID,917.742,VALID,0,VALID,100,VALID,-0.118866,VALID,19.5822,VALID,104,VALID,0,
2008-07-21, 00:48:00,VALID,917.753,VALID,0,VALID,100,VALID,-0.118866,VALID,19.6142,VALID,104,VALID,0,
2008-07-21, 00:49:01,VALID,917.746,VALID,0,VALID,100,VALID,-0.118866,VALID,19.6661,VALID,104,VALID,0,
2008-07-21, 00:50:00,VALID,917.754,VALID,0,VALID,99.9868,VALID,-0.118866,VALID,19.6596,VALID,104,VALID,0,
2008-07-21, 00:51:00,VALID,917.728,VALID,0,VALID,99.8795,VALID,-0.101885,VALID,19.6629,VALID,104,VALID,0,
2008-07-21, 00:52:01,VALID,917.695,VALID,0,VALID,99.8922,VALID,-0.118866,VALID,19.6631,VALID,104,VALID,0,
2008-07-21, 00:53:00,VALID,917.649,VALID,0,VALID,99.9891,VALID,-0.101885,VALID,19.6858,VALID,104,VALID,0,
2008-07-21, 00:54:00,VALID,917.603,VALID,0,VALID,100,VALID,-0.152827,VALID,19.6988,VALID,104,VALID,0,
2008-07-21, 00:55:01,VALID,917.558,VALID,0,VALID,100,VALID,-0.101885,VALID,19.7183,VALID,104,VALID,0,
2008-07-21, 00:56:01,VALID,917.509,VALID,0,VALID,100,VALID,-0.0849042,VALID,19.7153,VALID,104,VALID,0,
2008-07-21, 00:57:00,VALID,917.478,VALID,0,VALID,100,VALID,-0.101885,VALID,19.708,VALID,105,VALID,0,
2008-07-21, 00:58:00,VALID,917.47,VALID,0,VALID,100,VALID,-0.169808,VALID,19.7245,VALID,106,VALID,0,
2008-07-21, 00:59:00,VALID,917.454,VALID,0,VALID,100,VALID,-0.118866,VALID,19.7278,VALID,106,VALID,0,
2008-07-21, 01:00:00,VALID,917.445,VALID,0,VALID,100,VALID,-0.101885,VALID,19.7275,VALID,106,VALID,0,
2008-07-21, 01:01:00,VALID,917.444,VALID,0,VALID,100,VALID,-0.118866,VALID,19.7283,VALID,106,VALID,0,
2008-07-21, 01:02:01,VALID,917.441,VALID,0,VALID,100,VALID,-0.118866,VALID,19.7118,VALID,106,VALID,0,
2008-07-21, 01:03:00,VALID,917.422,VALID,0,VALID,100,VALID,-0.135847,VALID,19.7083,VALID,106,VALID,0,
2008-07-21, 01:04:01,VALID,917.395,VALID,0,VALID,100,VALID,-0.135847,VALID,19.7115,VALID,100,VALID,0,
2008-07-21, 01:05:00,VALID,917.365,VALID,0,VALID,100,VALID,-0.0849042,VALID,19.751,VALID,88,VALID,0,
2008-07-21, 01:06:00,VALID,917.348,VALID,0,VALID,100,VALID,-0.135847,VALID,19.7669,VALID,88,VALID,0,
2008-07-21, 01:07:00,VALID,917.316,VALID,0,VALID,100,VALID,-0.135847,VALID,19.7769,VALID,88,VALID,0,
2008-07-21, 01:08:00,VALID,917.294,VALID,0,VALID,100,VALID,-0.135847,VALID,19.7704,VALID,88,VALID,0,
2008-07-21, 01:09:00,VALID,917.275,VALID,0,VALID,100,VALID,-0.118866,VALID,19.751,VALID,88,VALID,0,
2008-07-21, 01:10:01,VALID,917.261,VALID,0,VALID,100,VALID,-0.152827,VALID,19.6988,VALID,88,VALID,0,
2008-07-21, 01:11:00,VALID,917.26,VALID,0,VALID,100,VALID,-0.0339617,VALID,19.6589,VALID,88,VALID,0,
2008-07-21, 01:12:00,VALID,917.258,VALID,0,VALID,100,VALID,0,VALID,19.6262,VALID,159,VALID,0.0605015,
2008-07-21, 01:13:00,VALID,917.258,VALID,0,VALID,100,VALID,0,VALID,19.6062,VALID,223,VALID,0.25686,
2008-07-21, 01:14:00,VALID,917.257,VALID,0,VALID,100,VALID,-0.0339617,VALID,19.5802,VALID,221,VALID,0.557049,
2008-07-21, 01:15:01,VALID,917.251,VALID,0,VALID,100,VALID,-0.0169808,VALID,19.5775,VALID,226,VALID,0.485618,
2008-07-21, 01:16:00,VALID,917.239,VALID,0,VALID,100,VALID,0,VALID,19.5743,VALID,227,VALID,0.43657,
2008-07-21, 01:17:00,VALID,917.222,VALID,0,VALID,100,VALID,0,VALID,19.5478,VALID,227,VALID,0.00266768,
2008-07-21, 01:18:00,VALID,917.214,VALID,0,VALID,100,VALID,-0.0169808,VALID,19.5543,VALID,229,VALID,0,
2008-07-21, 01:19:00,VALID,917.225,VALID,0,VALID,100,VALID,-0.0169808,VALID,19.5645,VALID,232,VALID,0,
2008-07-21, 01:20:00,VALID,917.217,VALID,0,VALID,100,VALID,-0.0169808,VALID,19.5775,VALID,232,VALID,0,
2008-07-21, 01:21:01,VALID,917.223,VALID,0,VALID,100,VALID,-0.0339617,VALID,19.5905,VALID,232,VALID,0,
2008-07-21, 01:22:00,VALID,917.224,VALID,0,VALID,100,VALID,-0.0169808,VALID,19.5775,VALID,232,VALID,0,
2008-07-21, 01:23:00,VALID,917.199,VALID,0,VALID,100,VALID,-0.0169808,VALID,19.5613,VALID,232,VALID,0,
2008-07-21, 01:24:00,VALID,917.184,VALID,0,VALID,100,VALID,-0.0509425,VALID,19.5548,VALID,232,VALID,0,
2008-07-21, 01:25:00,VALID,917.166,VALID,0,VALID,100,VALID,-0.0339617,VALID,19.5485,VALID,232,VALID,0,
2008-07-21, 01:26:00,VALID,917.149,VALID,0,VALID,100,VALID,-0.118866,VALID,19.5298,VALID,232,VALID,0,
2008-07-21, 01:27:00,VALID,917.158,VALID,0,VALID,100,VALID,-0.135847,VALID,19.5366,VALID,231,VALID,0,
2008-07-21, 01:28:00,VALID,917.162,VALID,0,VALID,100,VALID,-0.118866,VALID,19.5368,VALID,206,VALID,0,
2008-07-21, 01:29:00,VALID,917.151,VALID,0,VALID,100,VALID,-0.152827,VALID,19.5173,VALID,149,VALID,0,
2008-07-21, 01:30:01,VALID,917.149,VALID,0,VALID,100,VALID,-0.118866,VALID,19.5076,VALID,143,VALID,0,
2008-07-21, 01:31:01,VALID,917.143,VALID,0,VALID,100,VALID,-0.169808,VALID,19.5176,VALID,143,VALID,0,
2008-07-21, 01:32:00,VALID,917.131,VALID,0,VALID,100,VALID,-0.118866,VALID,19.4909,VALID,143,VALID,0,
2008-07-21, 01:33:01,VALID,917.118,VALID,0,VALID,100,VALID,-0.118866,VALID,19.4485,VALID,143,VALID,0,
2008-07-21, 01:34:00,VALID,917.097,VALID,0,VALID,100,VALID,-0.0849042,VALID,19.4297,VALID,138,VALID,0,
2008-07-21, 01:35:00,VALID,917.098,VALID,0,VALID,100,VALID,-0.118866,VALID,19.4232,VALID,133,VALID,0,
2008-07-21, 01:36:00,VALID,917.09,VALID,0,VALID,100,VALID,-0.152827,VALID,19.41,VALID,134,VALID,0,
2008-07-21, 01:37:01,VALID,917.105,VALID,0,VALID,100,VALID,-0.118866,VALID,19.4132,VALID,138,VALID,0.102325,
2008-07-21, 01:38:01,VALID,917.121,VALID,0,VALID,100,VALID,-0.118866,VALID,19.4265,VALID,137,VALID,0.335417,
2008-07-21, 01:39:00,VALID,917.137,VALID,0,VALID,100,VALID,-0.118866,VALID,19.4262,VALID,141,VALID,1.01302,
2008-07-21, 01:40:01,VALID,917.123,VALID,0,VALID,100,VALID,-0.118866,VALID,19.41,VALID,141,VALID,0.998757,
2008-07-21, 01:41:00,VALID,917.114,VALID,0,VALID,100,VALID,-0.118866,VALID,19.4038,VALID,147,VALID,0.956321,
2008-07-21, 01:42:01,VALID,917.104,VALID,0,VALID,100,VALID,-0.135847,VALID,19.41,VALID,155,VALID,0.58724,
2008-07-21, 01:43:00,VALID,917.079,VALID,0,VALID,100,VALID,-0.152827,VALID,19.4132,VALID,156,VALID,0.999814,
2008-07-21, 01:44:01,VALID,917.049,VALID,0,VALID,100,VALID,-0.118866,VALID,19.4165,VALID,155,VALID,1.17113,
2008-07-21, 01:45:01,VALID,917.049,VALID,0,VALID,100,VALID,-0.169808,VALID,19.407,VALID,157,VALID,0.432594,
2008-07-21, 01:46:01,VALID,917.06,VALID,0,VALID,100,VALID,-0.152827,VALID,19.397,VALID,143,VALID,0.719939,
2008-07-21, 01:47:01,VALID,917.058,VALID,0,VALID,100,VALID,-0.118866,VALID,19.3875,VALID,147,VALID,0.907703,
2008-07-21, 01:48:01,VALID,917.043,VALID,0,VALID,100,VALID,-0.169808,VALID,19.3843,VALID,145,VALID,0.594097,
2008-07-21, 01:49:01,VALID,917.022,VALID,0,VALID,100,VALID,-0.118866,VALID,19.3713,VALID,141,VALID,0.336483,
2008-07-21, 01:50:01,VALID,917,VALID,0,VALID,100,VALID,-0.169808,VALID,19.3711,VALID,142,VALID,0,
2008-07-21, 01:51:00,VALID,916.989,VALID,0,VALID,100,VALID,-0.118866,VALID,19.3641,VALID,131,VALID,0.0293445,
2008-07-21, 01:52:00,VALID,916.978,VALID,0,VALID,100,VALID,-0.152827,VALID,19.3713,VALID,118,VALID,0.466933,
2008-07-21, 01:53:00,VALID,916.982,VALID,0,VALID,100,VALID,-0.169808,VALID,19.3581,VALID,116,VALID,0.0336682,
2008-07-21, 01:54:00,VALID,916.98,VALID,0,VALID,100,VALID,-0.135847,VALID,19.3681,VALID,115,VALID,0,
2008-07-21, 01:55:00,VALID,916.987,VALID,0,VALID,100,VALID,-0.169808,VALID,19.3518,VALID,110,VALID,0.372142,
2008-07-21, 01:56:00,VALID,916.986,VALID,0,VALID,100,VALID,-0.101885,VALID,19.3471,VALID,107,VALID,0.0401278,
2008-07-21, 01:57:00,VALID,916.987,VALID,0,VALID,100,VALID,-0.0339617,VALID,19.3469,VALID,96,VALID,0,
2008-07-21, 01:58:00,VALID,916.967,VALID,0,VALID,100,VALID,-0.0339617,VALID,19.3599,VALID,107,VALID,0,
2008-07-21, 01:59:00,VALID,916.967,VALID,0,VALID,100,VALID,-0.0169808,VALID,19.3439,VALID,116,VALID,0,
2008-07-21, 02:00:00,VALID,916.936,VALID,0,VALID,100,VALID,-0.0679233,VALID,19.3404,VALID,115,VALID,0,
2008-07-21, 02:01:00,VALID,916.906,VALID,0,VALID,100,VALID,0,VALID,19.3434,VALID,116,VALID,0,
2008-07-21, 02:02:00,VALID,916.888,VALID,0,VALID,100,VALID,-0.0339617,VALID,19.3402,VALID,117,VALID,0,
2008-07-21, 02:03:00,VALID,916.859,VALID,0,VALID,100,VALID,-0.0509425,VALID,19.3664,VALID,116,VALID,0,
2008-07-21, 02:04:00,VALID,916.835,VALID,0,VALID,100,VALID,-0.0169808,VALID,19.3821,VALID,116,VALID,0,
2008-07-21, 02:05:00,VALID,916.831,VALID,0,VALID,100,VALID,-0.0679233,VALID,19.3891,VALID,116,VALID,0,
2008-07-21, 02:06:00,VALID,916.829,VALID,0,VALID,100,VALID,-0.0169808,VALID,19.3888,VALID,116,VALID,0,
2008-07-21, 02:07:00,VALID,916.836,VALID,0,VALID,100,VALID,-0.0339617,VALID,19.3926,VALID,116,VALID,0,
2008-07-21, 02:08:00,VALID,916.824,VALID,0,VALID,100,VALID,0,VALID,19.3788,VALID,96,VALID,0,
2008-07-21, 02:09:00,VALID,916.834,VALID,0,VALID,100,VALID,-0.0339617,VALID,19.3758,VALID,63,VALID,0,
2008-07-21, 02:10:00,VALID,916.832,VALID,0,VALID,100,VALID,-0.0169808,VALID,19.3494,VALID,64,VALID,0,
2008-07-21, 02:11:00,VALID,916.82,VALID,0,VALID,100,VALID,-0.135847,VALID,19.3314,VALID,65,VALID,0,
2008-07-21, 02:12:00,VALID,916.827,VALID,0,VALID,100,VALID,-0.135847,VALID,19.3226,VALID,69,VALID,0,
2008-07-21, 02:13:00,VALID,916.827,VALID,0,VALID,100,VALID,-0.118866,VALID,19.3094,VALID,72,VALID,0.294588,
2008-07-21, 02:14:00,VALID,916.84,VALID,0,VALID,100,VALID,-0.152827,VALID,19.2999,VALID,75,VALID,0.692116,
2008-07-21, 02:15:00,VALID,916.844,VALID,0,VALID,100,VALID,-0.135847,VALID,19.2802,VALID,75,VALID,0.813072,
2008-07-21, 02:16:00,VALID,916.848,VALID,0,VALID,100,VALID,-0.169808,VALID,19.287,VALID,76,VALID,0.858467,
2008-07-21, 02:17:00,VALID,916.837,VALID,0,VALID,100,VALID,-0.135847,VALID,19.2925,VALID,81,VALID,0.955618,
2008-07-21, 02:18:00,VALID,916.844,VALID,0,VALID,100,VALID,-0.118866,VALID,19.3059,VALID,89,VALID,0.819727,
2008-07-21, 02:19:00,VALID,916.84,VALID,0,VALID,100,VALID,-0.118866,VALID,19.3022,VALID,89,VALID,0.658967,
2008-07-21, 02:20:00,VALID,916.846,VALID,0,VALID,100,VALID,-0.169808,VALID,19.3284,VALID,93,VALID,0.726935,
2008-07-21, 02:21:00,VALID,916.842,VALID,0,VALID,100,VALID,-0.152827,VALID,19.3386,VALID,109,VALID,0.735085,
2008-07-21, 02:22:00,VALID,916.838,VALID,0,VALID,100,VALID,-0.118866,VALID,19.3806,VALID,147,VALID,0.994496,
2008-07-21, 02:23:00,VALID,916.841,VALID,0,VALID,100,VALID,-0.118866,VALID,19.4195,VALID,155,VALID,1.04985,
2008-07-21, 02:24:00,VALID,916.84,VALID,0,VALID,100,VALID,-0.152827,VALID,19.4252,VALID,151,VALID,0.669779,
2008-07-21, 02:25:00,VALID,916.834,VALID,0,VALID,100,VALID,-0.135847,VALID,19.4357,VALID,144,VALID,0.837126,
2008-07-21, 02:26:00,VALID,916.822,VALID,0,VALID,100,VALID,-0.169808,VALID,19.423,VALID,136,VALID,0.807292,
2008-07-21, 02:27:00,VALID,916.816,VALID,0,VALID,100,VALID,-0.135847,VALID,19.4135,VALID,133,VALID,0.926491,
2008-07-21, 02:28:00,VALID,916.805,VALID,0,VALID,100,VALID,-0.152827,VALID,19.3973,VALID,140,VALID,0.951601,
2008-07-21, 02:29:00,VALID,916.786,VALID,0,VALID,100,VALID,-0.152827,VALID,19.4003,VALID,154,VALID,1.0794,
2008-07-21, 02:30:00,VALID,916.768,VALID,0,VALID,100,VALID,-0.118866,VALID,19.3866,VALID,165,VALID,1.28274,
2008-07-21, 02:31:00,VALID,916.735,VALID,0,VALID,100,VALID,-0.186789,VALID,19.3776,VALID,154,VALID,0.385216,
2008-07-21, 02:32:00,VALID,916.721,VALID,0,VALID,100,VALID,-0.118866,VALID,19.3416,VALID,159,VALID,0,
2008-07-21, 02:33:00,VALID,916.696,VALID,0,VALID,100,VALID,-0.152827,VALID,19.3354,VALID,156,VALID,0,
2008-07-21, 02:34:00,VALID,916.677,VALID,0,VALID,100,VALID,-0.169808,VALID,19.3224,VALID,159,VALID,0.00109012,
2008-07-21, 02:35:00,VALID,916.646,VALID,0,VALID,100,VALID,-0.152827,VALID,19.3157,VALID,158,VALID,0.379179,
2008-07-21, 02:36:00,VALID,916.629,VALID,0,VALID,100,VALID,-0.152827,VALID,19.3192,VALID,167,VALID,0.165483,
2008-07-21, 02:37:00,VALID,916.607,VALID,0,VALID,100,VALID,-0.118866,VALID,19.3354,VALID,167,VALID,0,
2008-07-21, 02:38:00,VALID,916.585,VALID,0,VALID,100,VALID,-0.152827,VALID,19.3451,VALID,167,VALID,0.491824,
2008-07-21, 02:39:00,VALID,916.573,VALID,0,VALID,100,VALID,-0.152827,VALID,19.3544,VALID,168,VALID,0.618459,
2008-07-21, 02:40:00,VALID,916.563,VALID,0,VALID,100,VALID,-0.118866,VALID,19.3381,VALID,168,VALID,0.91875,
2008-07-21, 02:41:00,VALID,916.547,VALID,0,VALID,100,VALID,-0.0679233,VALID,19.3342,VALID,162,VALID,0.893512,
2008-07-21, 02:42:00,VALID,916.538,VALID,0,VALID,100,VALID,-0.0849042,VALID,19.3244,VALID,144,VALID,0.892228,
2008-07-21, 02:43:00,VALID,916.534,VALID,0,VALID,100,VALID,-0.0509425,VALID,19.3179,VALID,142,VALID,0.783008,
2008-07-21, 02:44:00,VALID,916.534,VALID,0,VALID,100,VALID,-0.0169808,VALID,19.3082,VALID,138,VALID,0.77763,
2008-07-21, 02:45:00,VALID,916.535,VALID,0,VALID,100,VALID,-0.0169808,VALID,19.3244,VALID,120,VALID,0.569922,
2008-07-21, 02:46:00,VALID,916.543,VALID,0,VALID,100,VALID,-0.0169808,VALID,19.3404,VALID,115,VALID,0.192042,
2008-07-21, 02:47:00,VALID,916.553,VALID,0,VALID,100,VALID,-0.0169808,VALID,19.3626,VALID,115,VALID,0,
2008-07-21, 02:48:00,VALID,916.57,VALID,0,VALID,100,VALID,-0.0679233,VALID,19.3664,VALID,104,VALID,0,
2008-07-21, 02:49:00,VALID,916.6,VALID,0,VALID,100,VALID,0,VALID,19.3694,VALID,95,VALID,0,
2008-07-21, 02:50:00,VALID,916.623,VALID,0,VALID,100,VALID,-0.0679233,VALID,19.3796,VALID,95,VALID,0,
2008-07-21, 02:51:00,VALID,916.634,VALID,0,VALID,100,VALID,-0.0509425,VALID,19.3529,VALID,79,VALID,0,
2008-07-21, 02:52:00,VALID,916.654,VALID,0,VALID,100,VALID,-0.0509425,VALID,19.3274,VALID,48,VALID,0,
2008-07-21, 02:53:00,VALID,916.662,VALID,0,VALID,100,VALID,-0.0679233,VALID,19.3796,VALID,17,VALID,0,
2008-07-21, 02:54:00,VALID,916.65,VALID,0,VALID,100,VALID,-0.0509425,VALID,19.3761,VALID,17,VALID,0,
2008-07-21, 02:55:00,VALID,916.656,VALID,0,VALID,100,VALID,-0.0679233,VALID,19.3436,VALID,17,VALID,0,
2008-07-21, 02:56:00,VALID,916.673,VALID,0,VALID,100,VALID,-0.118866,VALID,19.3254,VALID,28,VALID,0,
2008-07-21, 02:57:00,VALID,916.69,VALID,0,VALID,100,VALID,-0.152827,VALID,19.3226,VALID,41,VALID,0,
2008-07-21, 02:58:00,VALID,916.728,VALID,0,VALID,100,VALID,-0.135847,VALID,19.3097,VALID,84,VALID,0,
2008-07-21, 02:59:00,VALID,916.755,VALID,0,VALID,100,VALID,-0.152827,VALID,19.3032,VALID,137,VALID,0.0537574,
2008-07-21, 03:00:00,VALID,916.756,VALID,0,VALID,100,VALID,-0.169808,VALID,19.3129,VALID,154,VALID,0.111607,
2008-07-21, 03:01:00,VALID,916.752,VALID,0.2,VALID,100,VALID,-0.135847,VALID,19.2964,VALID,153,VALID,0.0859375,
2008-07-21, 03:02:00,VALID,916.718,VALID,0,VALID,100,VALID,-0.135847,VALID,19.2902,VALID,139,VALID,0.605208,
2008-07-21, 03:03:00,VALID,916.703,VALID,0,VALID,100,VALID,-0.118866,VALID,19.2707,VALID,126,VALID,0,
2008-07-21, 03:04:00,VALID,916.668,VALID,0,VALID,100,VALID,-0.135847,VALID,19.2672,VALID,126,VALID,0,
2008-07-21, 03:05:00,VALID,916.676,VALID,0,VALID,100,VALID,-0.152827,VALID,19.2805,VALID,126,VALID,0,
2008-07-21, 03:06:00,VALID,916.697,VALID,0,VALID,100,VALID,-0.135847,VALID,19.2867,VALID,126,VALID,0,
2008-07-21, 03:07:00,VALID,916.705,VALID,0.2,VALID,100,VALID,-0.169808,VALID,19.2999,VALID,126,VALID,0,
2008-07-21, 03:08:00,VALID,916.736,VALID,0,VALID,100,VALID,-0.169808,VALID,19.287,VALID,126,VALID,0,
2008-07-21, 03:09:00,VALID,916.755,VALID,0,VALID,100,VALID,-0.169808,VALID,19.2837,VALID,126,VALID,0,
2008-07-21, 03:10:00,VALID,916.763,VALID,0,VALID,100,VALID,-0.169808,VALID,19.3159,VALID,81,VALID,0,
2008-07-21, 03:11:00,VALID,916.754,VALID,0.2,VALID,100,VALID,-0.0509425,VALID,19.3536,VALID,62,VALID,0,
2008-07-21, 03:12:00,VALID,916.74,VALID,0,VALID,100,VALID,-0.101885,VALID,19.3566,VALID,45,VALID,0,
2008-07-21, 03:13:00,VALID,916.733,VALID,0,VALID,100,VALID,-0.0509425,VALID,19.3569,VALID,45,VALID,0,
2008-07-21, 03:14:00,VALID,916.723,VALID,0,VALID,100,VALID,-0.0509425,VALID,19.3277,VALID,45,VALID,0,
2008-07-21, 03:15:00,VALID,916.713,VALID,0,VALID,100,VALID,-0.0509425,VALID,19.3112,VALID,45,VALID,0,
2008-07-21, 03:16:00,VALID,916.712,VALID,0.2,VALID,100,VALID,-0.0339617,VALID,19.3177,VALID,45,VALID,0,
2008-07-21, 03:17:00,VALID,916.7,VALID,0,VALID,100,VALID,-0.0339617,VALID,19.3174,VALID,43,VALID,0,
2008-07-21, 03:18:00,VALID,916.701,VALID,0,VALID,100,VALID,-0.0849042,VALID,19.3084,VALID,18,VALID,0.0944767,
2008-07-21, 03:19:00,VALID,916.689,VALID,0,VALID,100,VALID,-0.0339617,VALID,19.292,VALID,333,VALID,0.00225694,
2008-07-21, 03:20:00,VALID,916.695,VALID,0.2,VALID,100,VALID,-0.0509425,VALID,19.305,VALID,333,VALID,0,
2008-07-21, 03:21:00,VALID,916.685,VALID,0,VALID,100,VALID,-0.0679233,VALID,19.2852,VALID,333,VALID,0,
2008-07-21, 03:22:00,VALID,916.684,VALID,0,VALID,100,VALID,-0.0169808,VALID,19.2855,VALID,333,VALID,0,
2008-07-21, 03:23:00,VALID,916.677,VALID,0,VALID,100,VALID,-0.0169808,VALID,19.2688,VALID,333,VALID,0,
2008-07-21, 03:24:00,VALID,916.676,VALID,0,VALID,100,VALID,-0.0339617,VALID,19.2985,VALID,333,VALID,0,
2008-07-21, 03:25:00,VALID,916.66,VALID,0,VALID,100,VALID,0,VALID,19.2813,VALID,333,VALID,0,
2008-07-21, 03:26:00,VALID,916.651,VALID,0.2,VALID,100,VALID,-0.0169808,VALID,19.2845,VALID,333,VALID,0,
2008-07-21, 03:27:00,VALID,916.656,VALID,0,VALID,100,VALID,-0.0339617,VALID,19.2815,VALID,333,VALID,0,
2008-07-21, 03:28:00,VALID,916.661,VALID,0,VALID,100,VALID,-0.0169808,VALID,19.272,VALID,333,VALID,0,
2008-07-21, 03:29:00,VALID,916.669,VALID,0,VALID,100,VALID,-0.0509425,VALID,19.2528,VALID,333,VALID,0,
2008-07-21, 03:30:00,VALID,916.663,VALID,0,VALID,100,VALID,-0.0339617,VALID,19.2396,VALID,333,VALID,0,
2008-07-21, 03:31:00,VALID,916.663,VALID,0,VALID,100,VALID,-0.0849042,VALID,19.2201,VALID,333,VALID,0,
2008-07-21, 03:32:00,VALID,916.659,VALID,0,VALID,100,VALID,-0.0679233,VALID,19.2039,VALID,22,VALID,0,
2008-07-21, 03:33:00,VALID,916.674,VALID,0,VALID,100,VALID,-0.0339617,VALID,19.2361,VALID,29,VALID,0,
2008-07-21, 03:34:00,VALID,916.671,VALID,0,VALID,100,VALID,-0.0339617,VALID,19.256,VALID,29,VALID,0,
2008-07-21, 03:35:00,VALID,916.68,VALID,0,VALID,100,VALID,-0.0169808,VALID,19.2523,VALID,29,VALID,0,
2008-07-21, 03:36:00,VALID,916.684,VALID,0,VALID,100,VALID,-0.0169808,VALID,19.2461,VALID,45,VALID,0.132431,
2008-07-21, 03:37:00,VALID,916.699,VALID,0,VALID,100,VALID,0,VALID,19.2398,VALID,63,VALID,0,
2008-07-21, 03:38:00,VALID,916.699,VALID,0,VALID,100,VALID,-0.0169808,VALID,19.2301,VALID,63,VALID,0,
2008-07-21, 03:39:00,VALID,916.71,VALID,0,VALID,100,VALID,-0.0169808,VALID,19.2461,VALID,63,VALID,0,
2008-07-21, 03:40:00,VALID,916.726,VALID,0.2,VALID,100,VALID,-0.0509425,VALID,19.2583,VALID,63,VALID,0,
2008-07-21, 03:41:00,VALID,916.728,VALID,0,VALID,100,VALID,-0.0679233,VALID,19.2658,VALID,62,VALID,0,
2008-07-21, 03:42:00,VALID,916.747,VALID,0,VALID,100,VALID,-0.118866,VALID,19.2466,VALID,62,VALID,0,
2008-07-21, 03:43:00,VALID,916.75,VALID,0.2,VALID,100,VALID,-0.101885,VALID,19.2538,VALID,59,VALID,0,
2008-07-21, 03:44:00,VALID,916.771,VALID,0,VALID,100,VALID,-0.101885,VALID,19.2338,VALID,43,VALID,0,
2008-07-21, 03:45:00,VALID,916.772,VALID,0,VALID,100,VALID,-0.118866,VALID,19.2211,VALID,36,VALID,0,
2008-07-21, 03:46:00,VALID,916.785,VALID,0,VALID,100,VALID,-0.135847,VALID,19.2081,VALID,31,VALID,0,
2008-07-21, 03:47:00,VALID,916.773,VALID,0,VALID,100,VALID,-0.101885,VALID,19.2371,VALID,14,VALID,0,